Date String (YYYY-MM-DD hh:mm:ss) UTC,Instrument flags,Ambient pressure (hPa),Sample flow (lpm),Bypass flow (lpm),Sample temperature (°C),Ambient temperature (°C),ASC tube jacket temperature (°C),LED temperature (°C),Box temperature (°C),Sample RH (%),Span deviation,Mass concentration (μg/m³),Mass concentration (μg/m³),Mass concentration (μg/m³)
DateTimeUTC,F1_M11,P_M11,Q1_M11,Q2_M11,T1_M11,T2_M11,T3_M11,T4_M11,T5_M11,U1_M11,ZSPAN_M11,X0_M11,X2_M11,X1_M11
2021-11-30 07:00:00,,0827.9,5.02,0.00,30.0,29.0,00.0,39.0,31.6,10.5,0000.0,0003.99,0000.77,0000.33
2021-11-30 07:01:00,,0827.9,4.99,0.00,30.0,29.0,00.0,39.0,31.7,10.5,0000.0,0003.90,0000.73,0000.32
2021-11-30 07:02:00,,0827.8,5.00,0.00,30.0,29.0,00.0,39.0,31.6,10.6,0000.0,0004.11,0000.78,0000.32
2021-11-30 07:03:00,,0827.9,5.01,0.00,30.0,29.0,00.0,39.0,31.6,10.7,0000.0,0004.29,0000.82,0000.34
2021-11-30 07:04:00,,0827.9,4.99,0.00,29.9,29.0,00.0,39.0,31.6,10.7,0000.0,0004.38,0000.85,0000.36
2021-11-30 07:05:00,,0827.8,4.99,0.00,29.9,29.0,00.0,39.0,31.6,10.6,0000.0,0004.44,0000.83,0000.36
2021-11-30 07:06:00,,0827.7,5.02,0.00,29.9,29.0,00.0,39.0,31.6,10.7,0000.0,0005.94,0000.83,0000.35
2021-11-30 07:07:00,,0827.7,4.99,0.00,29.9,29.0,00.0,39.0,31.6,10.7,0000.0,0006.36,0000.85,0000.35
2021-11-30 07:08:00,,0827.7,5.00,0.00,29.9,28.9,00.0,39.0,31.6,10.6,0000.0,0006.52,0000.78,0000.34
2021-11-30 07:09:00,,0827.7,5.01,0.00,29.9,29.0,00.0,39.0,31.5,10.6,0000.0,0005.65,0000.76,0000.34
2021-11-30 07:10:00,,0827.7,5.01,0.00,29.9,29.0,00.0,39.0,31.5,10.6,0000.0,0005.39,0000.77,0000.34
2021-11-30 07:11:00,,0827.7,5.00,0.00,29.9,28.9,00.0,39.0,31.5,10.5,0000.0,0004.44,0000.77,0000.34
2021-11-30 07:12:00,,0827.7,5.00,0.00,29.8,28.9,00.0,39.0,31.5,10.5,0000.0,0004.28,0000.75,0000.33
2021-11-30 07:13:00,,0827.7,5.01,0.00,29.8,28.9,00.0,38.9,31.4,10.5,0000.0,0004.08,0000.70,0000.33
2021-11-30 07:14:00,,0827.7,4.99,0.00,29.8,28.8,00.0,38.9,31.4,10.5,0000.0,0003.86,0000.64,0000.31
2021-11-30 07:15:00,,0827.6,5.01,0.00,29.7,28.8,00.0,38.9,31.3,10.5,0000.0,0003.67,0000.60,0000.30
2021-11-30 07:16:00,,0827.7,4.99,0.00,29.7,28.8,00.0,38.9,31.3,10.6,0000.0,0003.56,0000.60,0000.31
2021-11-30 07:17:00,,0827.7,5.01,0.00,29.7,28.7,00.0,38.9,31.3,10.5,0000.0,0002.04,0000.58,0000.31
2021-11-30 07:18:00,,0827.7,5.00,0.00,29.7,28.7,00.0,38.9,31.3,10.6,0000.0,0001.52,0000.53,0000.30
2021-11-30 07:19:00,,0827.7,5.00,0.00,29.7,28.7,00.0,38.9,31.3,10.6,0000.0,0001.00,0000.51,0000.30
2021-11-30 07:20:00,,0827.7,4.99,0.00,29.7,28.8,00.0,38.8,31.3,10.5,0000.0,0001.00,0000.51,0000.30
2021-11-30 07:21:00,,0827.7,5.00,0.00,29.7,28.7,00.0,38.8,31.3,10.5,0000.0,0001.40,0000.50,0000.30
2021-11-30 07:22:00,,0827.7,5.02,0.00,29.7,28.7,00.0,38.8,31.3,10.6,0000.0,0001.61,0000.47,0000.30
2021-11-30 07:23:00,,0827.7,4.99,0.00,29.7,28.7,00.0,38.8,31.3,10.6,0000.0,0001.69,0000.49,0000.31
2021-11-30 07:24:00,,0827.7,4.99,0.00,29.7,28.7,00.0,38.8,31.3,10.6,0000.0,0001.80,0000.52,0000.31
2021-11-30 07:25:00,,0827.7,5.00,0.00,29.7,28.7,00.0,38.8,31.3,10.6,0000.0,0002.29,0000.53,0000.31
2021-11-30 07:26:00,,0827.7,5.00,0.00,29.7,28.7,00.0,38.8,31.3,10.5,0000.0,0002.70,0000.51,0000.30
2021-11-30 07:27:00,,0827.7,5.00,0.00,29.7,28.8,00.0,38.8,31.4,10.6,0000.0,0002.63,0000.50,0000.30
2021-11-30 07:28:00,,0827.7,4.99,0.00,29.7,28.8,00.0,38.8,31.4,10.5,0000.0,0002.61,0000.51,0000.30
2021-11-30 07:29:00,,0827.7,4.99,0.00,29.7,28.8,00.0,38.8,31.4,10.5,0000.0,0002.68,0000.53,0000.30
2021-11-30 07:30:00,,0827.9,5.01,0.00,29.7,28.8,00.0,38.8,31.4,10.5,0000.0,0002.76,0000.54,0000.30
2021-11-30 07:31:00,,0827.7,4.99,0.00,29.7,28.8,00.0,38.8,31.4,10.4,0000.0,0002.86,0000.54,0000.29
2021-11-30 07:32:00,,0827.8,4.99,0.00,29.8,28.9,00.0,38.8,31.4,10.4,0000.0,0002.51,0000.54,0000.29
2021-11-30 07:33:00,,0827.7,5.00,0.00,29.8,28.9,00.0,38.8,31.4,10.3,0000.0,0002.17,0000.53,0000.29
2021-11-30 07:34:00,,0827.8,4.99,0.00,29.7,28.9,00.0,38.8,31.4,10.4,0000.0,0002.08,0000.51,0000.28
2021-11-30 07:35:00,,0827.8,5.02,0.00,29.8,28.9,00.0,38.8,31.4,10.4,0000.0,0001.97,0000.49,0000.28
2021-11-30 07:36:00,,0827.7,4.99,0.00,29.8,28.9,00.0,38.8,31.4,10.3,0000.0,0001.62,0000.48,0000.28
2021-11-30 07:37:00,,0827.8,5.00,0.00,29.8,28.8,00.0,38.8,31.4,10.3,0000.0,0001.04,0000.49,0000.29
2021-11-30 07:38:00,,0827.7,5.00,0.00,29.8,28.8,00.0,38.8,31.4,10.3,0000.0,0001.03,0000.50,0000.29
2021-11-30 07:39:00,,0827.7,5.00,0.00,29.7,28.8,00.0,38.8,31.4,10.3,0000.0,0000.98,0000.48,0000.28
2021-11-30 07:40:00,,0827.7,5.00,0.00,29.7,28.8,00.0,38.8,31.3,10.3,0000.0,0000.85,0000.44,0000.28
2021-11-30 07:41:00,,0827.7,4.99,0.00,29.7,28.8,00.0,38.8,31.4,10.2,0000.0,0000.81,0000.42,0000.28
2021-11-30 07:42:00,,0827.7,5.02,0.00,29.7,28.8,00.0,38.8,31.4,10.2,0000.0,0000.73,0000.41,0000.28
2021-11-30 07:43:00,,0827.7,4.98,0.00,29.7,28.8,00.0,38.8,31.3,10.2,0000.0,0001.58,0000.40,0000.28
2021-11-30 07:44:00,,0827.7,5.01,0.00,29.7,28.8,00.0,38.8,31.4,10.3,0000.0,0001.60,0000.40,0000.28
2021-11-30 07:45:00,,0827.7,5.00,0.00,29.7,28.8,00.0,38.8,31.4,10.2,0000.0,0001.62,0000.41,0000.28
2021-11-30 07:46:00,,0827.8,4.99,0.00,29.7,28.8,00.0,38.8,31.4,10.2,0000.0,0001.60,0000.40,0000.28
2021-11-30 07:47:00,,0827.8,5.01,0.00,29.7,28.8,00.0,38.8,31.4,10.2,0000.0,0001.57,0000.38,0000.27
2021-11-30 07:48:00,,0827.7,5.00,0.00,29.7,28.8,00.0,38.8,31.3,10.2,0000.0,0001.54,0000.36,0000.27
2021-11-30 07:49:00,,0827.7,4.99,0.00,29.7,28.7,00.0,38.8,31.3,10.2,0000.0,0001.63,0000.36,0000.27
2021-11-30 07:50:00,,0827.7,5.00,0.00,29.7,28.7,00.0,38.8,31.4,10.2,0000.0,0001.63,0000.36,0000.27
2021-11-30 07:51:00,,0827.7,5.00,0.00,29.7,28.8,00.0,38.8,31.4,10.2,0000.0,0001.61,0000.35,0000.26
2021-11-30 07:52:00,,0827.7,5.01,0.00,29.7,28.7,00.0,38.8,31.3,10.2,0000.0,0001.53,0000.34,0000.27
2021-11-30 07:53:00,,0827.7,4.99,0.00,29.7,28.7,00.0,38.8,31.3,10.2,0000.0,0001.50,0000.35,0000.27
2021-11-30 07:54:00,,0827.7,5.00,0.00,29.7,28.7,00.0,38.8,31.4,10.2,0000.0,0000.72,0000.36,0000.27
2021-11-30 07:55:00,,0827.7,5.00,0.00,29.7,28.7,00.0,38.8,31.4,10.2,0000.0,0000.82,0000.40,0000.27
2021-11-30 07:56:00,,0827.7,4.99,0.00,29.7,28.7,00.0,38.8,31.3,10.1,0000.0,0000.86,0000.42,0000.27
2021-11-30 07:57:00,,0827.7,5.00,0.00,29.7,28.7,00.0,38.8,31.4,10.0,0000.0,0001.01,0000.45,0000.27
2021-11-30 07:58:00,,0827.7,5.00,0.00,29.7,28.7,00.0,38.8,31.4,10.1,0000.0,0001.05,0000.46,0000.28
2021-11-30 07:59:00,,0827.7,5.01,0.00,29.8,28.7,00.0,38.8,31.4,10.1,0000.0,0001.13,0000.49,0000.28
